Change the Weather History Date:

Saturday, August 2, 2014

  Actual Average Record
Temperature  
Mean Temperature 85 °F 77 °F  
Max Temperature 98 °F 95 °F 106 °F (1992)
Min Temperature 72 °F 59 °F 37 °F (1937)
Degree Days  
Heating Degree Days 0 0  
Month to date heating degree days 0 0  
Cooling Degree Days 20 13  
Month to date cooling degree days 33 26  
Growing Degree Days 34 (Base 50)    
Moisture  
Dew Point 45 °F    
Average Humidity 27    
Maximum Humidity 45    
Minimum Humidity 13    
Precipitation  
Precipitation 0.00 in 0.00 in 0.22 in (1930)
Month to date precipitation 0.00 0.01  
Sea Level Pressure  
Sea Level Pressure 29.92 in    
Wind  
Wind Speed 9 mph (ENE)    
Max Wind Speed 16 mph    
Max Gust Speed -    
Visibility 10 miles    
Events      
T = Trace of Precipitation, MM = Missing Value Source: NWS Daily Summary

Daily Weather History Graph

Daily Weather History Graph

Search for Another Location

Airport or City:

Trip Planner

Search our weather history database for the weather conditions in past years. The results will help you decide how hot, cold, wet, or windy it might be!

Date:

Astronomy

Aug. 02, 2014 Rise Set
Actual Time 6:35 AM MDT 9:03 PM MDT
Civil Twilight 6:03 AM MDT 9:35 PM MDT
Nautical Twilight 5:23 AM MDT 10:15 PM MDT
Astronomical Twilight 4:38 AM MDT 11:00 PM MDT
Moon 1:12 PM MDT (8/2) No Moon Set
Length of Visible Light 15h 32m
Length of Day
14h 28m
Waxing Crescent, 37% of the Moon is Illuminated
Aug 2
Waxing Crescent
Aug 3
First Quarter
Aug 10
Full
Aug 17
Last Quarter
Aug 25
New

Hourly Weather History & Observations

Time (MDT) Temp. Dew Point Humidity Pressure Visibility Wind Dir Wind Speed Gust Speed Precip Events Conditions
12:58 AM 81.1 °F 39.4 °F 23% 29.95 in 10.0 mi ESE 9.2 mph - N/A   Scattered Clouds
1:58 AM 82.2 °F 45.1 °F 27% 29.94 in 10.0 mi East 16.1 mph - N/A   Partly Cloudy
2:58 AM 77.4 °F 50.9 °F 39% 29.94 in 10.0 mi East 13.8 mph - N/A   Mostly Cloudy
3:58 AM 75.4 °F 51.3 °F 43% 29.95 in 10.0 mi East 9.2 mph - N/A   Partly Cloudy
4:58 AM 72.9 °F 50.2 °F 45% 29.96 in 10.0 mi East 8.1 mph - N/A   Partly Cloudy
5:58 AM 71.8 °F 47.5 °F 42% 29.98 in 10.0 mi SSE 9.2 mph - N/A   Clear
6:58 AM 72.5 °F 48.6 °F 43% 29.96 in 10.0 mi ENE 6.9 mph - N/A   Clear
7:58 AM 73.9 °F 49.3 °F 42% 29.98 in 10.0 mi NE 3.5 mph - N/A   Clear
8:58 AM 76.3 °F 48.9 °F 38% 29.99 in 10.0 mi SE 2.3 mph - N/A   Partly Cloudy
9:58 AM 80.8 °F 49.1 °F 33% 29.99 in 10.0 mi East 10.4 mph - N/A   Clear
10:58 AM 84.4 °F 47.5 °F 28% 29.99 in 10.0 mi East 13.8 mph - N/A   Clear
11:58 AM 86.9 °F 47.8 °F 26% 29.99 in 10.0 mi East 13.8 mph - N/A   Clear
12:58 PM 89.4 °F 46.6 °F 23% 29.96 in 10.0 mi East 11.5 mph - N/A   Partly Cloudy
1:58 PM 91.6 °F 44.8 °F 20% 29.95 in 10.0 mi East 10.4 mph - N/A   Clear
2:58 PM 93.2 °F 42.6 °F 17% 29.92 in 10.0 mi East 11.5 mph - N/A   Clear
3:58 PM 95.7 °F 39.9 °F 14% 29.89 in 10.0 mi NE 10.4 mph - N/A   Clear
4:58 PM 96.6 °F 38.8 °F 13% 29.86 in 10.0 mi North 9.2 mph - N/A   Clear
5:58 PM 97.2 °F 37.9 °F 13% 29.84 in 10.0 mi NNE 6.9 mph - N/A   Clear
6:58 PM 95.5 °F 39.7 °F 14% 29.83 in 10.0 mi NW 6.9 mph - N/A   Clear
7:58 PM 95.0 °F 39.7 °F 15% 29.83 in 10.0 mi NNE 5.8 mph - N/A   Clear
8:58 PM 90.3 °F 44.8 °F 21% 29.84 in 10.0 mi Calm Calm - N/A   Mostly Cloudy
9:58 PM 85.5 °F 37.9 °F 19% 29.86 in 10.0 mi NE 3.5 mph - N/A   Clear
10:58 PM 81.9 °F 46.0 °F 28% 29.85 in 10.0 mi SE 4.6 mph - N/A   Clear
11:58 PM 78.6 °F 42.4 °F 28% 29.86 in 10.0 mi NNW 12.7 mph - N/A   Clear